Time,TemperatureF,DewpointF,PressureIn,WindDirection,WindDirectionDegrees,WindSpeedMPH,WindSpeedGustMPH,Humidity,HourlyPrecipIn,Conditions,Clouds,dailyrainin,SoftwareType,DateUTC
2013-05-10 00:01:00,67.7,59.9,29.43,WNW,282,0.0,0.0,76,0.00,,SCT150,0.00,VWS V14.01,2013-05-10 05:01:00,
2013-05-10 00:11:00,67.5,59.7,29.43,WNW,282,0.0,0.0,76,0.00,,SCT150,0.00,VWS V14.01,2013-05-10 05:11:00,
2013-05-10 00:16:00,67.5,60.0,29.43,WNW,282,0.0,0.0,77,0.00,,SCT150,0.00,VWS V14.01,2013-05-10 05:16:00,
2013-05-10 00:21:00,67.4,60.0,29.42,WNW,282,0.0,0.0,77,0.00,,SCT150,0.00,VWS V14.01,2013-05-10 05:21:00,
2013-05-10 00:26:00,67.3,59.8,29.42,WNW,282,0.0,0.0,77,0.00,,SCT150,0.00,VWS V14.01,2013-05-10 05:26:00,
2013-05-10 00:36:00,67.1,59.7,29.42,WNW,282,0.0,0.0,77,0.00,,BKN250,0.00,VWS V14.01,2013-05-10 05:36:00,
2013-05-10 00:41:00,67.0,59.9,29.42,WNW,282,0.0,0.0,78,0.00,,BKN250,0.00,VWS V14.01,2013-05-10 05:41:00,
2013-05-10 00:46:00,66.9,59.8,29.43,WNW,282,0.0,0.0,78,0.00,,BKN250,0.00,VWS V14.01,2013-05-10 05:46:00,
2013-05-10 00:56:00,66.6,59.5,29.43,WNW,282,0.0,0.0,78,0.00,,BKN250,0.00,VWS V14.01,2013-05-10 05:56:00,
2013-05-10 01:06:00,66.4,59.7,29.43,WNW,282,0.0,0.0,79,0.00,,BKN250,0.00,VWS V14.01,2013-05-10 06:06:00,
2013-05-10 01:11:00,66.4,60.0,29.45,WNW,282,0.0,0.0,80,0.00,,BKN250,0.00,VWS V14.01,2013-05-10 06:11:00,
2013-05-10 01:16:00,66.3,60.3,29.45,WNW,282,0.0,0.0,81,0.01,,BKN250,0.01,VWS V14.01,2013-05-10 06:16:00,
2013-05-10 01:21:00,66.1,60.8,29.46,WNW,282,0.0,0.0,83,0.01,,BKN250,0.01,VWS V14.01,2013-05-10 06:21:00,
2013-05-10 01:31:00,65.4,60.5,29.44,West,281,1.0,4.0,84,0.02,,BKN250,0.02,VWS V14.01,2013-05-10 06:31:00,
2013-05-10 01:36:00,65.0,60.4,29.44,West,281,0.0,3.0,85,0.02,,OVC200,0.02,VWS V14.01,2013-05-10 06:36:00,
2013-05-10 01:41:00,64.8,60.5,29.43,West,281,0.0,1.0,86,0.03,,OVC200,0.03,VWS V14.01,2013-05-10 06:41:00,
2013-05-10 01:46:00,64.6,60.7,29.43,West,281,0.0,0.0,87,0.05,,OVC200,0.05,VWS V14.01,2013-05-10 06:46:00,
2013-05-10 01:51:00,64.5,60.5,29.42,West,281,0.0,1.0,87,0.05,,OVC200,0.05,VWS V14.01,2013-05-10 06:51:00,
2013-05-10 01:56:00,64.4,60.8,29.42,West,281,0.0,2.0,88,0.06,,OVC200,0.06,VWS V14.01,2013-05-10 06:56:00,
2013-05-10 02:01:00,64.2,60.6,29.40,West,281,0.0,0.0,88,0.07,,OVC200,0.07,VWS V14.01,2013-05-10 07:01:00,
2013-05-10 02:11:00,64.0,60.7,29.40,West,281,0.0,0.0,89,0.08,,OVC200,0.08,VWS V14.01,2013-05-10 07:11:00,
2013-05-10 02:16:00,63.9,60.9,29.40,West,281,0.0,0.0,90,0.08,,OVC200,0.08,VWS V14.01,2013-05-10 07:16:00,
2013-05-10 02:21:00,63.6,60.3,29.40,West,281,0.0,0.0,89,0.07,,OVC200,0.08,VWS V14.01,2013-05-10 07:21:00,
2013-05-10 02:31:00,63.2,59.9,29.39,West,281,0.0,1.0,89,0.07,,OVC200,0.08,VWS V14.01,2013-05-10 07:31:00,
2013-05-10 02:36:00,63.0,59.7,29.38,West,281,0.0,1.0,89,0.06,,OVC200,0.08,VWS V14.01,2013-05-10 07:36:00,
2013-05-10 02:46:00,62.6,59.3,29.39,West,280,0.0,2.0,89,0.05,,OVC200,0.08,VWS V14.01,2013-05-10 07:46:00,
2013-05-10 02:51:00,62.5,59.5,29.38,West,280,0.0,1.0,90,0.03,,OVC200,0.08,VWS V14.01,2013-05-10 07:51:00,
2013-05-10 02:56:00,62.3,59.3,29.38,West,280,0.0,0.0,90,0.03,,OVC200,0.08,VWS V14.01,2013-05-10 07:56:00,
2013-05-10 03:01:00,62.2,58.9,29.38,West,280,0.0,0.0,89,0.02,,OVC200,0.08,VWS V14.01,2013-05-10 08:01:00,
2013-05-10 03:06:00,62.1,59.1,29.38,West,280,0.0,0.0,90,0.01,,OVC200,0.08,VWS V14.01,2013-05-10 08:06:00,
2013-05-10 03:16:00,61.9,58.9,29.38,West,280,0.0,1.0,90,0.00,,OVC200,0.08,VWS V14.01,2013-05-10 08:16:00,
2013-05-10 03:21:00,61.8,58.8,29.38,West,280,0.0,1.0,90,0.00,,OVC200,0.08,VWS V14.01,2013-05-10 08:21:00,
2013-05-10 03:26:00,61.8,58.8,29.38,West,280,0.0,0.0,90,0.00,,OVC200,0.08,VWS V14.01,2013-05-10 08:26:00,
2013-05-10 03:36:00,61.7,59.0,29.38,West,280,0.0,1.0,91,0.00,,OVC200,0.08,VWS V14.01,2013-05-10 08:36:00,
2013-05-10 03:41:00,61.7,58.7,29.38,West,280,0.0,0.0,90,0.00,,OVC200,0.08,VWS V14.01,2013-05-10 08:41:00,
2013-05-10 03:46:00,61.6,58.6,29.39,West,280,0.0,0.0,90,0.00,,OVC200,0.08,VWS V14.01,2013-05-10 08:46:00,
2013-05-10 03:51:00,61.6,59.0,29.38,West,280,0.0,2.0,91,0.00,,OVC200,0.08,VWS V14.01,2013-05-10 08:51:00,
2013-05-10 03:56:00,61.6,59.0,29.39,West,280,0.0,1.0,91,0.00,,OVC200,0.08,VWS V14.01,2013-05-10 08:56:00,
2013-05-10 04:01:00,61.6,59.0,29.39,West,280,0.0,3.0,91,0.00,,OVC200,0.08,VWS V14.01,2013-05-10 09:01:00,
2013-05-10 04:11:00,61.5,58.8,29.39,West,280,0.0,0.0,91,0.00,,OVC200,0.08,VWS V14.01,2013-05-10 09:11:00,
2013-05-10 04:21:00,61.5,58.8,29.39,West,280,0.0,0.0,91,0.00,,OVC200,0.08,VWS V14.01,2013-05-10 09:21:00,
2013-05-10 04:26:00,61.5,58.8,29.39,West,280,0.0,0.0,91,0.00,,OVC200,0.08,VWS V14.01,2013-05-10 09:26:00,
2013-05-10 04:31:00,61.5,58.8,29.39,West,280,0.0,0.0,91,0.00,,OVC200,0.08,VWS V14.01,2013-05-10 09:31:00,
2013-05-10 04:36:00,61.5,58.8,29.39,West,280,0.0,1.0,91,0.00,,OVC200,0.08,VWS V14.01,2013-05-10 09:36:00,
2013-05-10 04:41:00,61.5,58.8,29.39,West,280,0.0,0.0,91,0.00,,OVC200,0.08,VWS V14.01,2013-05-10 09:41:00,
2013-05-10 04:46:00,61.5,58.8,29.39,West,280,0.0,0.0,91,0.00,,OVC200,0.08,VWS V14.01,2013-05-10 09:46:00,
2013-05-10 04:51:00,61.5,58.8,29.40,West,280,0.0,0.0,91,0.00,,OVC200,0.08,VWS V14.01,2013-05-10 09:51:00,
2013-05-10 04:56:00,61.4,58.8,29.40,West,280,0.0,0.0,91,0.00,,OVC200,0.08,VWS V14.01,2013-05-10 09:56:00,
2013-05-10 05:01:00,61.4,58.8,29.40,West,280,0.0,1.0,91,0.00,,OVC200,0.08,VWS V14.01,2013-05-10 10:01:00,
2013-05-10 05:11:00,61.2,58.6,29.40,West,280,0.0,0.0,91,0.00,,OVC200,0.08,VWS V14.01,2013-05-10 10:11:00,
2013-05-10 05:16:00,61.2,58.2,29.40,West,280,0.0,1.0,90,0.00,,OVC200,0.08,VWS V14.01,2013-05-10 10:16:00,
2013-05-10 05:21:00,61.1,58.5,29.40,West,280,0.0,1.0,91,0.00,,OVC200,0.08,VWS V14.01,2013-05-10 10:21:00,
2013-05-10 05:26:00,61.1,58.2,29.41,West,280,0.0,1.0,90,0.00,,OVC200,0.08,VWS V14.01,2013-05-10 10:26:00,
2013-05-10 05:31:00,61.1,58.2,29.40,West,280,0.0,2.0,90,0.00,,OVC200,0.08,VWS V14.01,2013-05-10 10:31:00,
2013-05-10 05:36:00,61.0,58.0,29.40,West,280,0.0,0.0,90,0.00,,BKN200,0.08,VWS V14.01,2013-05-10 10:36:00,
2013-05-10 05:41:00,61.0,58.0,29.40,West,280,0.0,0.0,90,0.00,,BKN200,0.08,VWS V14.01,2013-05-10 10:41:00,
2013-05-10 05:46:00,60.9,58.0,29.40,West,280,0.0,1.0,90,0.00,,BKN200,0.08,VWS V14.01,2013-05-10 10:46:00,
2013-05-10 05:51:00,60.9,58.3,29.41,West,280,0.0,1.0,91,0.00,,BKN200,0.08,VWS V14.01,2013-05-10 10:51:00,
2013-05-10 05:56:00,60.9,58.3,29.41,West,280,0.0,0.0,91,0.00,,BKN200,0.08,VWS V14.01,2013-05-10 10:56:00,
2013-05-10 06:01:00,60.9,58.3,29.41,West,280,0.0,0.0,91,0.00,,BKN200,0.08,VWS V14.01,2013-05-10 11:01:00,
2013-05-10 06:06:00,60.9,58.3,29.41,West,280,0.0,0.0,91,0.00,,BKN200,0.08,VWS V14.01,2013-05-10 11:06:00,
2013-05-10 06:11:00,60.9,58.3,29.41,West,280,0.0,3.0,91,0.00,,BKN200,0.08,VWS V14.01,2013-05-10 11:11:00,
2013-05-10 06:16:00,60.9,58.3,29.41,West,280,0.0,1.0,91,0.00,,BKN200,0.08,VWS V14.01,2013-05-10 11:16:00,
2013-05-10 06:21:00,60.9,58.3,29.41,West,280,0.0,0.0,91,0.00,,BKN200,0.08,VWS V14.01,2013-05-10 11:21:00,
2013-05-10 06:26:00,60.9,58.3,29.41,West,280,0.0,0.0,91,0.00,,BKN200,0.08,VWS V14.01,2013-05-10 11:26:00,
2013-05-10 06:31:00,60.9,58.3,29.41,West,280,0.0,0.0,91,0.00,,BKN200,0.08,VWS V14.01,2013-05-10 11:31:00,
2013-05-10 06:37:00,61.0,58.4,29.41,West,280,0.0,0.0,91,0.00,,BKN200,0.08,VWS V14.01,2013-05-10 11:37:00,
2013-05-10 06:42:00,61.0,58.4,29.41,West,280,0.0,0.0,91,0.00,,BKN200,0.08,VWS V14.01,2013-05-10 11:42:00,
2013-05-10 06:47:00,61.0,58.4,29.41,West,280,0.0,0.0,91,0.00,,BKN200,0.08,VWS V14.01,2013-05-10 11:47:00,
2013-05-10 06:52:00,61.1,58.5,29.41,West,280,0.0,0.0,91,0.00,,BKN200,0.08,VWS V14.01,2013-05-10 11:52:00,
2013-05-10 06:57:00,61.1,58.5,29.41,West,280,0.0,0.0,91,0.00,,BKN200,0.08,VWS V14.01,2013-05-10 11:57:00,
2013-05-10 07:02:00,61.2,58.6,29.41,West,280,0.0,1.0,91,0.00,,BKN200,0.08,VWS V14.01,2013-05-10 12:02:00,
2013-05-10 07:07:00,61.2,58.6,29.42,West,280,0.0,1.0,91,0.00,,BKN200,0.08,VWS V14.01,2013-05-10 12:07:00,
2013-05-10 07:12:00,61.3,58.7,29.42,West,280,0.0,3.0,91,0.00,,BKN200,0.08,VWS V14.01,2013-05-10 12:12:00,
2013-05-10 07:17:00,61.3,58.7,29.42,West,280,0.0,1.0,91,0.00,,BKN200,0.08,VWS V14.01,2013-05-10 12:17:00,
2013-05-10 07:22:00,61.4,58.8,29.42,West,280,0.0,0.0,91,0.00,,BKN200,0.08,VWS V14.01,2013-05-10 12:22:00,
2013-05-10 07:27:00,61.5,58.8,29.42,West,280,0.0,2.0,91,0.00,,BKN200,0.08,VWS V14.01,2013-05-10 12:27:00,
2013-05-10 07:32:00,61.5,58.5,29.42,West,280,0.0,2.0,90,0.00,,BKN200,0.08,VWS V14.01,2013-05-10 12:32:00,
2013-05-10 07:37:00,61.6,58.3,29.42,West,280,0.0,2.0,89,0.00,,BKN200,0.08,VWS V14.01,2013-05-10 12:37:00,
2013-05-10 07:42:00,61.7,58.4,29.42,West,280,0.0,2.0,89,0.00,,BKN200,0.08,VWS V14.01,2013-05-10 12:42:00,
2013-05-10 07:47:00,61.8,58.5,29.42,West,280,0.0,1.0,89,0.00,,BKN200,0.08,VWS V14.01,2013-05-10 12:47:00,
2013-05-10 07:52:00,61.9,58.6,29.42,West,280,0.0,1.0,89,0.00,,BKN200,0.08,VWS V14.01,2013-05-10 12:52:00,
2013-05-10 07:57:00,61.9,58.6,29.41,West,280,0.0,2.0,89,0.00,,BKN200,0.08,VWS V14.01,2013-05-10 12:57:00,
2013-05-10 08:02:00,61.9,58.6,29.42,West,280,0.0,1.0,89,0.00,,BKN200,0.08,VWS V14.01,2013-05-10 13:02:00,
2013-05-10 08:07:00,62.0,58.4,29.42,West,280,0.0,3.0,88,0.00,,BKN200,0.08,VWS V14.01,2013-05-10 13:07:00,
2013-05-10 08:12:00,62.2,58.9,29.42,West,280,0.0,2.0,89,0.00,,BKN200,0.08,VWS V14.01,2013-05-10 13:12:00,
2013-05-10 08:17:00,62.4,59.1,29.43,West,280,0.0,2.0,89,0.00,,BKN200,0.08,VWS V14.01,2013-05-10 13:17:00,
2013-05-10 08:22:00,62.7,59.1,29.43,West,280,0.0,3.0,88,0.00,,BKN200,0.08,VWS V14.01,2013-05-10 13:22:00,
2013-05-10 08:27:00,62.8,58.9,29.43,West,280,0.0,1.0,87,0.00,,BKN200,0.08,VWS V14.01,2013-05-10 13:27:00,
2013-05-10 08:32:00,63.0,59.1,29.43,West,280,0.0,2.0,87,0.00,,BKN200,0.08,VWS V14.01,2013-05-10 13:32:00,
2013-05-10 08:37:00,63.2,59.3,29.43,West,280,0.0,3.0,87,0.00,,OVC110,0.08,VWS V14.01,2013-05-10 13:37:00,
2013-05-10 08:42:00,63.4,59.5,29.43,West,280,0.0,1.0,87,0.00,,OVC110,0.08,VWS V14.01,2013-05-10 13:42:00,
2013-05-10 08:47:00,63.6,59.7,29.43,West,280,0.0,1.0,87,0.00,,OVC110,0.08,VWS V14.01,2013-05-10 13:47:00,
2013-05-10 08:52:00,63.9,60.0,29.43,West,280,0.0,1.0,87,0.00,,OVC110,0.08,VWS V14.01,2013-05-10 13:52:00,
2013-05-10 08:57:00,64.1,59.8,29.43,West,280,1.0,1.0,86,0.00,,OVC110,0.08,VWS V14.01,2013-05-10 13:57:00,
2013-05-10 09:02:00,64.1,59.5,29.43,West,280,0.0,1.0,85,0.00,,OVC110,0.08,VWS V14.01,2013-05-10 14:02:00,
2013-05-10 09:07:00,64.3,59.4,29.43,NE,44,0.0,4.0,84,0.00,,OVC110,0.08,VWS V14.01,2013-05-10 14:07:00,
2013-05-10 09:17:00,64.5,59.2,29.43,NE,40,0.0,2.0,83,0.00,,OVC110,0.08,VWS V14.01,2013-05-10 14:17:00,
2013-05-10 09:22:00,64.6,59.3,29.42,NE,40,0.0,2.0,83,0.00,,OVC110,0.08,VWS V14.01,2013-05-10 14:22:00,
2013-05-10 09:27:00,64.7,59.4,29.43,NE,40,0.0,3.0,83,0.00,,OVC110,0.08,VWS V14.01,2013-05-10 14:27:00,
2013-05-10 09:32:00,64.9,59.6,29.43,NE,40,1.0,1.0,83,0.00,,OVC110,0.08,VWS V14.01,2013-05-10 14:32:00,
2013-05-10 09:37:00,65.1,59.8,29.43,NE,40,0.0,1.0,83,0.00,,OVC090,0.08,VWS V14.01,2013-05-10 14:37:00,
2013-05-10 09:42:00,65.3,60.0,29.43,NW,313,0.0,2.0,83,0.00,,OVC090,0.08,VWS V14.01,2013-05-10 14:42:00,
2013-05-10 09:47:00,65.5,59.9,29.42,NW,313,0.0,2.0,82,0.00,,OVC090,0.08,VWS V14.01,2013-05-10 14:47:00,
2013-05-10 09:52:00,65.7,60.1,29.43,NW,313,0.0,0.0,82,0.00,,OVC090,0.08,VWS V14.01,2013-05-10 14:52:00,
2013-05-10 09:57:00,65.8,59.8,29.43,NW,313,0.0,1.0,81,0.00,,OVC090,0.08,VWS V14.01,2013-05-10 14:57:00,
2013-05-10 10:02:00,66.0,60.0,29.43,NW,313,0.0,1.0,81,0.00,,OVC090,0.08,VWS V14.01,2013-05-10 15:02:00,
2013-05-10 10:12:00,66.0,59.7,29.43,NW,313,3.0,3.0,80,0.00,,OVC090,0.08,VWS V14.01,2013-05-10 15:12:00,
2013-05-10 10:17:00,66.0,59.7,29.43,NNE,12,0.0,4.0,80,0.00,,OVC090,0.08,VWS V14.01,2013-05-10 15:17:00,
2013-05-10 10:22:00,66.1,59.8,29.43,NNE,13,0.0,2.0,80,0.00,,OVC090,0.08,VWS V14.01,2013-05-10 15:22:00,
2013-05-10 10:27:00,66.1,59.4,29.43,NNE,13,1.0,1.0,79,0.00,,OVC090,0.08,VWS V14.01,2013-05-10 15:27:00,
2013-05-10 10:32:00,66.2,59.9,29.43,NW,310,0.0,5.0,80,0.00,,OVC090,0.08,VWS V14.01,2013-05-10 15:32:00,
2013-05-10 10:37:00,66.2,59.5,29.43,NW,308,0.0,3.0,79,0.00,,OVC012,0.08,VWS V14.01,2013-05-10 15:37:00,
2013-05-10 10:42:00,66.3,59.2,29.44,NW,308,1.0,1.0,78,0.00,,OVC012,0.08,VWS V14.01,2013-05-10 15:42:00,
2013-05-10 10:47:00,66.4,59.7,29.44,NW,308,0.0,2.0,79,0.00,,OVC012,0.08,VWS V14.01,2013-05-10 15:47:00,
2013-05-10 10:52:00,66.6,59.9,29.44,North,0,0.0,2.0,79,0.00,,OVC012,0.08,VWS V14.01,2013-05-10 15:52:00,
2013-05-10 10:57:00,66.7,60.0,29.44,North,0,0.0,1.0,79,0.00,,OVC012,0.08,VWS V14.01,2013-05-10 15:57:00,
2013-05-10 11:02:00,66.7,59.6,29.44,North,0,0.0,1.0,78,0.00,,OVC012,0.08,VWS V14.01,2013-05-10 16:02:00,
2013-05-10 11:07:00,66.4,59.7,29.45,North,0,0.0,2.0,79,0.00,,OVC016,0.08,VWS V14.01,2013-05-10 16:07:00,
2013-05-10 11:12:00,66.3,59.6,29.45,North,0,0.0,1.0,79,0.00,,OVC016,0.08,VWS V14.01,2013-05-10 16:12:00,
2013-05-10 11:17:00,66.2,59.5,29.45,North,0,0.0,1.0,79,0.00,,OVC016,0.08,VWS V14.01,2013-05-10 16:17:00,
2013-05-10 11:22:00,66.2,59.5,29.44,North,0,0.0,0.0,79,0.00,,OVC016,0.08,VWS V14.01,2013-05-10 16:22:00,
2013-05-10 11:27:00,66.2,59.2,29.45,North,0,0.0,2.0,78,0.00,,OVC016,0.08,VWS V14.01,2013-05-10 16:27:00,
2013-05-10 11:32:00,66.3,59.2,29.45,North,0,0.0,1.0,78,0.00,,OVC016,0.08,VWS V14.01,2013-05-10 16:32:00,
2013-05-10 11:37:00,66.3,59.2,29.45,North,0,1.0,2.0,78,0.00,,OVC016,0.08,VWS V14.01,2013-05-10 16:37:00,
2013-05-10 11:42:00,66.3,59.2,29.45,North,0,0.0,1.0,78,0.01,,OVC016,0.09,VWS V14.01,2013-05-10 16:42:00,
2013-05-10 11:47:00,66.3,59.2,29.44,North,0,0.0,1.0,78,0.01,,OVC016,0.09,VWS V14.01,2013-05-10 16:47:00,
2013-05-10 11:52:00,66.3,59.2,29.44,North,0,0.0,0.0,78,0.01,,OVC016,0.09,VWS V14.01,2013-05-10 16:52:00,
2013-05-10 11:57:00,66.2,59.2,29.44,North,0,0.0,2.0,78,0.01,,OVC016,0.09,VWS V14.01,2013-05-10 16:57:00,
2013-05-10 12:02:00,65.9,58.9,29.45,North,1,0.0,2.0,78,0.01,,OVC016,0.09,VWS V14.01,2013-05-10 17:02:00,
2013-05-10 12:07:00,65.7,58.7,29.45,North,0,0.0,1.0,78,0.01,,OVC016,0.09,VWS V14.01,2013-05-10 17:07:00,
2013-05-10 12:12:00,65.5,58.8,29.45,NE,37,0.0,1.0,79,0.01,,OVC016,0.09,VWS V14.01,2013-05-10 17:12:00,
2013-05-10 12:17:00,65.3,58.6,29.45,North,0,0.0,3.0,79,0.01,,OVC016,0.09,VWS V14.01,2013-05-10 17:17:00,
2013-05-10 12:22:00,65.2,58.2,29.45,NNW,343,0.0,3.0,78,0.01,,OVC016,0.09,VWS V14.01,2013-05-10 17:22:00,
2013-05-10 12:27:00,65.3,58.6,29.45,NNW,344,0.0,2.0,79,0.01,,OVC016,0.09,VWS V14.01,2013-05-10 17:27:00,
2013-05-10 12:32:00,65.3,58.6,29.45,WNW,292,0.0,3.0,79,0.01,,OVC016,0.09,VWS V14.01,2013-05-10 17:32:00,
2013-05-10 12:41:00,65.3,58.6,29.44,NNE,17,0.0,4.0,79,0.01,,OVC023,0.09,VWS V14.01,2013-05-10 17:41:00,
2013-05-10 12:46:00,65.4,58.4,29.45,NNE,16,0.0,2.0,78,0.00,,OVC023,0.09,VWS V14.01,2013-05-10 17:46:00,
2013-05-10 12:51:00,65.5,58.1,29.45,NNE,16,0.0,2.0,77,0.00,,OVC023,0.09,VWS V14.01,2013-05-10 17:51:00,
2013-05-10 12:56:00,65.5,57.7,29.44,NNE,16,0.0,1.0,76,0.00,,OVC023,0.09,VWS V14.01,2013-05-10 17:56:00,
2013-05-10 13:01:00,65.5,57.7,29.44,NNE,16,0.0,1.0,76,0.00,,OVC023,0.09,VWS V14.01,2013-05-10 18:01:00,
2013-05-10 13:11:00,65.5,57.4,29.45,ENE,61,0.0,4.0,75,0.00,,OVC023,0.09,VWS V14.01,2013-05-10 18:11:00,
2013-05-10 13:16:00,65.4,57.3,29.45,ENE,61,0.0,1.0,75,0.00,,OVC023,0.09,VWS V14.01,2013-05-10 18:16:00,